Jamestown, NY

3:59 PM EST on November 17, 2019 (GMT -0500)
Chautauqua County-Jamestown

Weather History for KJHW - October, 2019

Change the Weather History Date:

Sunday, October 20, 2019

  Actual Average Record
Temperature  
Mean Temperature 54 °F -  
Max Temperature 66 °F 55 °F 75 °F (1961)
Min Temperature 43 °F 32 °F 21 °F (1974)
Degree Days  
Heating Degree Days 12    
Growing Degree Days 4 (Base 50)    
Moisture  
Dew Point 43 °F    
Average Humidity 71    
Maximum Humidity 89    
Minimum Humidity 47    
Precipitation  
Precipitation 0.00 in - - ()
Sea Level Pressure  
Sea Level Pressure 29.96 in    
Wind  
Wind Speed 6 mph (South)    
Max Wind Speed 9 mph    
Max Gust Speed -    
Visibility 10 miles    
Events      
Averages and records for this station are not official NWS values.
T = Trace of Precipitation, MM = Missing Value Source: NWS Daily Summary

Daily Weather History Graph

Daily Weather History Graph

Search for Another Location

Airport or City:

Astronomy

Oct. 20, 2019 Rise Set
Actual Time 7:35 AM EDT 6:27 PM EDT
Civil Twilight 7:06 AM EDT 6:56 PM EDT
Nautical Twilight 6:34 AM EDT 7:28 PM EDT
Astronomical Twilight 6:01 AM EDT 8:01 PM EDT
Moon 11:30 PM EDT (10/20) 2:05 PM EDT (10/20)
Length of Visible Light 11h 49m
Length of Day
10h 52m
Waning Gibbous, 59% of the Moon is Illuminated
Oct 20
Waning Gibbous
Oct 21
Last Quarter
Oct 27
New
Nov 4
First Quarter
Nov 12
Full

Hourly Weather History & Observations

Time (EDT) Temp. Windchill Dew Point Humidity Pressure Visibility Wind Dir Wind Speed Gust Speed Precip Events Conditions
12:56 AM 46.9 °F - 39.0 °F 74% 29.94 in 10.0 mi South 5.8 mph - N/A   Clear
1:56 AM 46.0 °F 42.5 °F 39.0 °F 76% 29.93 in 10.0 mi South 6.9 mph - N/A   Clear
2:56 AM 45.0 °F 41.8 °F 39.0 °F 80% 29.93 in 10.0 mi SSW 5.8 mph - N/A   Clear
3:56 AM 43.0 °F 38.8 °F 39.0 °F 86% 29.91 in 10.0 mi South 6.9 mph - N/A   Clear
4:56 AM 44.1 °F 40.1 °F 39.0 °F 82% 29.91 in 10.0 mi South 6.9 mph - N/A   Clear
5:56 AM 44.1 °F 40.8 °F 39.0 °F 82% 29.92 in 10.0 mi South 5.8 mph - N/A   Clear
6:56 AM 44.1 °F 41.5 °F 39.9 °F 85% 29.92 in 10.0 mi South 4.6 mph - N/A   Clear
7:56 AM 43.0 °F 39.5 °F 39.9 °F 89% 29.93 in 10.0 mi South 5.8 mph - N/A   Clear
8:56 AM 44.1 °F 40.8 °F 41.0 °F 89% 29.95 in 10.0 mi South 5.8 mph - N/A   Clear
9:56 AM 46.9 °F - 41.0 °F 80% 29.95 in 10.0 mi South 6.9 mph - N/A   Clear
10:56 AM 52.0 °F - 44.1 °F 74% 29.96 in 10.0 mi South 9.2 mph - N/A   Clear
11:56 AM 57.0 °F - 45.0 °F 64% 29.95 in 10.0 mi SSW 9.2 mph - N/A   Clear
12:56 PM 61.0 °F - 45.0 °F 56% 29.94 in 10.0 mi WSW 8.1 mph - N/A   Clear
1:56 PM 62.1 °F - 44.1 °F 52% 29.94 in 10.0 mi Variable 3.5 mph - N/A   Clear
2:56 PM 64.0 °F - 44.1 °F 48% 29.93 in 10.0 mi Variable 4.6 mph - N/A   Clear
3:56 PM 64.9 °F - 44.1 °F 47% 29.94 in 10.0 mi East 3.5 mph - N/A   Clear
4:56 PM 64.9 °F - 45.0 °F 48% 29.95 in 10.0 mi WSW 3.5 mph - N/A   Clear
5:56 PM 62.1 °F - 46.9 °F 58% 29.96 in 10.0 mi NNW 6.9 mph - N/A   Clear
6:56 PM 59.0 °F - 46.0 °F 62% 29.98 in 10.0 mi North 4.6 mph - N/A   Clear
7:56 PM 57.0 °F - 46.9 °F 69% 29.99 in 10.0 mi NNE 5.8 mph - N/A   Clear
8:56 PM 55.9 °F - 45.0 °F 67% 30.01 in 10.0 mi NE 4.6 mph - N/A   Clear
9:56 PM 55.0 °F - 45.0 °F 69% 30.02 in 10.0 mi Calm Calm - N/A   Clear
10:56 PM 51.1 °F - 45.0 °F 80% 30.04 in 10.0 mi Calm Calm - N/A   Clear
11:56 PM 48.0 °F - 44.1 °F 86% 30.04 in 10.0 mi South 3.5 mph - N/A   Clear